{"data":{"norad_id":61640,"intl_designator":"2024-191V","name":"STARLINK-32339","alt_names":[],"object_type":"PAYLOAD","status":"ACTIVE","operator":null,"country":"US","launch_date":"2024-10-23","launch_site_code":"AFETR","launch_vehicle":null,"mission":null,"orbit_class":"UNKNOWN","rcs_meters":null,"size_class":null,"mass_kg":null,"dimensions":null,"purposes":["comms"],"wikipedia_slug":null,"has_3d_model":false,"image_url":null,"decayed_at":null,"tle_current":{"epoch":"2026-05-24T22:48:12.119328Z","epoch_age_seconds":82526,"freshness":"FRESH","line1":"1 61640U 24191V   26144.95014027  .00000392  00000+0  23764-4 0  9998","line2":"2 61640  43.0036  83.4602 0001082 270.3410  89.7317 15.27576967 89193","mean_motion":15.27576967,"eccentricity":0.0001082,"inclination_deg":43.0036,"raan_deg":83.4602,"arg_perigee_deg":270.341,"mean_anomaly_deg":89.7317,"bstar":2.3764e-5,"rev_number":8919,"period_min":94.26693588003,"perigee_km":482.31579662954,"apogee_km":483.80055926605,"semimajor_km":6861.1951779478,"source":"CELESTRAK","updated_at":"2026-05-25T13:38:19.410719Z"}}}